Time,TemperatureF,DewpointF,PressureIn,WindDirection,WindDirectionDegrees,WindSpeedMPH,WindSpeedGustMPH,Humidity,HourlyPrecipIn,Conditions,Clouds,dailyrainin,SoftwareType,DateUTC
2014-03-03 00:00:00,52.2,40.8,29.88,North,-999,0.0,0.0,65,0.00,,,-99.99,FreeWX-Wi 1.01,2014-03-03 08:00:00,
2014-03-03 00:05:00,52.0,40.6,29.88,North,-999,0.0,0.0,65,0.00,,,-99.99,FreeWX-Wi 1.01,2014-03-03 08:05:00,
2014-03-03 00:10:00,52.0,40.6,29.88,North,-999,0.0,0.0,65,0.04,,,-99.99,FreeWX-Wi 1.01,2014-03-03 08:10:00,
2014-03-03 00:15:00,52.0,40.6,29.88,North,-999,0.0,0.0,65,0.04,,,-99.99,FreeWX-Wi 1.01,2014-03-03 08:15:00,
2014-03-03 00:20:00,52.0,41.4,29.88,North,-999,0.0,0.0,67,0.04,,,-99.99,FreeWX-Wi 1.01,2014-03-03 08:20:00,
2014-03-03 00:25:00,51.8,41.2,29.88,North,-999,0.0,0.0,67,0.04,,,-99.99,FreeWX-Wi 1.01,2014-03-03 08:25:00,
2014-03-03 00:30:00,51.8,41.2,29.88,North,-999,0.0,2.2,67,0.04,,,-99.99,FreeWX-Wi 1.01,2014-03-03 08:30:00,
2014-03-03 00:35:00,51.6,41.4,29.88,North,-999,0.0,0.0,68,0.04,,,-99.99,FreeWX-Wi 1.01,2014-03-03 08:35:00,
2014-03-03 00:40:00,51.6,41.4,29.88,North,-999,0.0,0.0,68,0.04,,,-99.99,FreeWX-Wi 1.01,2014-03-03 08:40:00,
2014-03-03 00:45:00,51.6,41.4,29.88,North,-999,0.0,0.0,68,0.04,,,-99.99,FreeWX-Wi 1.01,2014-03-03 08:45:00,
2014-03-03 00:50:00,51.6,41.4,29.88,North,-999,0.0,0.0,68,0.04,,,-99.99,FreeWX-Wi 1.01,2014-03-03 08:50:00,
2014-03-03 00:55:00,51.6,41.7,29.88,North,-999,0.0,0.0,69,0.04,,,-99.99,FreeWX-Wi 1.01,2014-03-03 08:55:00,
2014-03-03 01:00:00,51.6,41.7,29.88,North,-999,0.0,0.0,69,0.04,,,-99.99,FreeWX-Wi 1.01,2014-03-03 09:00:00,
2014-03-03 01:05:00,51.6,41.7,29.88,North,-999,0.0,0.0,69,0.04,,,-99.99,FreeWX-Wi 1.01,2014-03-03 09:05:00,
2014-03-03 01:10:00,51.8,42.3,29.88,North,-999,0.0,0.0,70,0.00,,,-99.99,FreeWX-Wi 1.01,2014-03-03 09:10:00,
2014-03-03 01:15:00,51.8,43.0,29.88,North,-999,0.0,0.0,72,0.00,,,-99.99,FreeWX-Wi 1.01,2014-03-03 09:15:00,
2014-03-03 01:20:00,51.6,43.0,29.88,North,-999,0.0,0.0,72,0.00,,,-99.99,FreeWX-Wi 1.01,2014-03-03 09:20:00,
2014-03-03 01:25:00,51.6,43.0,29.88,North,-999,0.0,0.0,72,0.00,,,-99.99,FreeWX-Wi 1.01,2014-03-03 09:25:00,
2014-03-03 01:30:00,51.6,43.0,29.88,North,-999,0.0,0.0,72,0.00,,,-99.99,FreeWX-Wi 1.01,2014-03-03 09:30:00,
2014-03-03 01:35:00,51.6,43.3,29.88,North,-999,0.0,0.0,73,0.00,,,-99.99,FreeWX-Wi 1.01,2014-03-03 09:35:00,
2014-03-03 01:40:00,51.8,43.3,29.88,North,-999,0.0,0.0,73,0.00,,,-99.99,FreeWX-Wi 1.01,2014-03-03 09:40:00,
2014-03-03 01:45:00,51.6,43.3,29.88,North,-999,0.0,0.0,73,0.00,,,-99.99,FreeWX-Wi 1.01,2014-03-03 09:45:00,
2014-03-03 01:50:00,51.6,43.3,29.88,North,-999,0.0,0.0,73,0.04,,,-99.99,FreeWX-Wi 1.01,2014-03-03 09:50:00,
2014-03-03 01:55:00,51.6,43.5,29.88,North,-999,0.0,0.0,74,0.04,,,-99.99,FreeWX-Wi 1.01,2014-03-03 09:55:00,
2014-03-03 02:00:00,51.6,43.5,29.88,North,-999,0.0,0.0,74,0.04,,,-99.99,FreeWX-Wi 1.01,2014-03-03 10:00:00,
2014-03-03 02:05:00,51.6,43.5,29.85,North,-999,0.0,0.0,74,0.04,,,-99.99,FreeWX-Wi 1.01,2014-03-03 10:05:00,
2014-03-03 02:10:00,51.6,43.5,29.85,North,-999,0.0,0.0,74,0.04,,,-99.99,FreeWX-Wi 1.01,2014-03-03 10:10:00,
2014-03-03 02:15:00,51.6,43.9,29.85,North,-999,0.0,0.0,75,0.04,,,-99.99,FreeWX-Wi 1.01,2014-03-03 10:15:00,
2014-03-03 02:20:00,51.6,43.9,29.85,North,-999,0.0,0.0,75,0.04,,,-99.99,FreeWX-Wi 1.01,2014-03-03 10:20:00,
2014-03-03 02:25:00,51.6,43.9,29.85,North,-999,0.0,0.0,75,0.08,,,-99.99,FreeWX-Wi 1.01,2014-03-03 10:25:00,
2014-03-03 02:30:00,51.6,43.9,29.85,North,-999,0.0,0.0,75,0.08,,,-99.99,FreeWX-Wi 1.01,2014-03-03 10:30:00,
2014-03-03 02:35:00,51.6,43.9,29.85,North,-999,0.0,0.0,75,0.08,,,-99.99,FreeWX-Wi 1.01,2014-03-03 10:35:00,
2014-03-03 02:40:00,51.8,44.1,29.85,North,-999,0.0,0.0,75,0.08,,,-99.99,FreeWX-Wi 1.01,2014-03-03 10:40:00,
2014-03-03 02:45:00,51.8,44.1,29.85,North,-999,0.0,0.0,75,0.12,,,-99.99,FreeWX-Wi 1.01,2014-03-03 10:45:00,
2014-03-03 02:50:00,51.6,43.9,29.85,North,-999,0.0,0.0,75,0.08,,,-99.99,FreeWX-Wi 1.01,2014-03-03 10:50:00,
2014-03-03 02:55:00,51.6,43.9,29.85,North,-999,0.0,0.0,75,0.08,,,-99.99,FreeWX-Wi 1.01,2014-03-03 10:55:00,
2014-03-03 03:00:00,51.6,43.9,29.85,North,-999,0.0,0.0,75,0.08,,,-99.99,FreeWX-Wi 1.01,2014-03-03 11:00:00,
2014-03-03 03:05:00,51.6,43.9,29.85,North,-999,0.0,0.0,75,0.08,,,-99.99,FreeWX-Wi 1.01,2014-03-03 11:05:00,
2014-03-03 03:10:00,51.6,43.9,29.85,North,-999,0.0,0.0,75,0.08,,,-99.99,FreeWX-Wi 1.01,2014-03-03 11:10:00,
2014-03-03 03:15:00,51.6,44.2,29.85,North,-999,0.0,0.0,76,0.08,,,-99.99,FreeWX-Wi 1.01,2014-03-03 11:15:00,
2014-03-03 03:20:00,51.6,44.2,29.82,North,-999,0.0,0.0,76,0.08,,,-99.99,FreeWX-Wi 1.01,2014-03-03 11:20:00,
2014-03-03 03:25:00,51.6,44.2,29.82,North,-999,0.0,0.0,76,0.04,,,-99.99,FreeWX-Wi 1.01,2014-03-03 11:25:00,
2014-03-03 03:30:00,51.6,44.6,29.82,North,-999,0.0,0.0,77,0.08,,,-99.99,FreeWX-Wi 1.01,2014-03-03 11:30:00,
2014-03-03 03:35:00,51.8,44.8,29.82,North,-999,0.0,0.0,77,0.08,,,-99.99,FreeWX-Wi 1.01,2014-03-03 11:35:00,
2014-03-03 03:40:00,51.6,45.0,29.82,North,-999,0.0,0.0,78,0.08,,,-99.99,FreeWX-Wi 1.01,2014-03-03 11:40:00,
2014-03-03 03:45:00,51.6,45.3,29.82,North,-999,0.0,0.0,79,0.04,,,-99.99,FreeWX-Wi 1.01,2014-03-03 11:45:00,
2014-03-03 03:50:00,51.6,45.3,29.82,North,-999,0.0,0.0,79,0.04,,,-99.99,FreeWX-Wi 1.01,2014-03-03 11:50:00,
2014-03-03 03:55:00,51.6,45.3,29.82,North,-999,0.0,0.0,79,0.04,,,-99.99,FreeWX-Wi 1.01,2014-03-03 11:55:00,
2014-03-03 04:00:00,51.6,45.3,29.82,North,-999,0.0,0.0,79,0.04,,,-99.99,FreeWX-Wi 1.01,2014-03-03 12:00:00,
2014-03-03 04:05:00,51.6,45.7,29.82,North,-999,0.0,0.0,80,0.04,,,-99.99,FreeWX-Wi 1.01,2014-03-03 12:05:00,
2014-03-03 04:10:00,51.6,45.7,29.82,North,-999,0.0,0.0,80,0.04,,,-99.99,FreeWX-Wi 1.01,2014-03-03 12:10:00,
2014-03-03 04:15:00,51.6,45.7,29.82,North,-999,0.0,0.0,80,0.04,,,-99.99,FreeWX-Wi 1.01,2014-03-03 12:15:00,
2014-03-03 04:20:00,51.6,46.0,29.82,North,-999,0.0,0.0,81,0.04,,,-99.99,FreeWX-Wi 1.01,2014-03-03 12:20:00,
2014-03-03 04:25:00,51.6,46.0,29.82,North,-999,0.0,0.0,81,0.04,,,-99.99,FreeWX-Wi 1.01,2014-03-03 12:25:00,
2014-03-03 04:30:00,51.6,46.0,29.82,North,-999,0.0,0.0,81,0.00,,,-99.99,FreeWX-Wi 1.01,2014-03-03 12:30:00,
2014-03-03 04:35:00,51.6,46.0,29.82,North,-999,0.0,0.0,81,0.00,,,-99.99,FreeWX-Wi 1.01,2014-03-03 12:35:00,
2014-03-03 04:40:00,51.6,46.0,29.82,North,-999,0.0,0.0,81,0.00,,,-99.99,FreeWX-Wi 1.01,2014-03-03 12:40:00,
2014-03-03 04:45:00,51.8,45.9,29.82,North,-999,0.0,0.0,80,0.00,,,-99.99,FreeWX-Wi 1.01,2014-03-03 12:45:00,
2014-03-03 04:50:00,52.2,46.6,29.79,North,-999,0.0,0.0,81,0.00,,,-99.99,FreeWX-Wi 1.01,2014-03-03 12:50:00,
2014-03-03 04:55:00,52.3,46.9,29.79,North,-999,0.0,0.0,82,0.00,,,-99.99,FreeWX-Wi 1.01,2014-03-03 12:55:00,
2014-03-03 05:00:00,52.2,46.8,29.79,North,-999,0.0,0.0,82,0.00,,,-99.99,FreeWX-Wi 1.01,2014-03-03 13:00:00,
2014-03-03 05:05:00,52.2,46.8,29.79,North,-999,0.0,0.0,82,0.00,,,-99.99,FreeWX-Wi 1.01,2014-03-03 13:05:00,
2014-03-03 05:10:00,52.3,46.9,29.79,North,-999,0.0,0.0,82,0.00,,,-99.99,FreeWX-Wi 1.01,2014-03-03 13:10:00,
2014-03-03 05:15:00,52.5,47.1,29.79,North,-999,0.0,0.0,82,0.00,,,-99.99,FreeWX-Wi 1.01,2014-03-03 13:15:00,
2014-03-03 05:20:00,52.5,47.5,29.79,North,-999,0.0,0.0,83,0.00,,,-99.99,FreeWX-Wi 1.01,2014-03-03 13:20:00,
2014-03-03 05:25:00,52.7,47.7,29.79,North,-999,0.0,0.0,83,0.00,,,-99.99,FreeWX-Wi 1.01,2014-03-03 13:25:00,
2014-03-03 05:30:00,52.7,47.7,29.79,North,-999,0.0,0.0,83,0.04,,,-99.99,FreeWX-Wi 1.01,2014-03-03 13:30:00,
2014-03-03 05:35:00,52.7,48.0,29.79,North,-999,0.0,0.0,84,0.04,,,-99.99,FreeWX-Wi 1.01,2014-03-03 13:35:00,
2014-03-03 05:40:00,52.9,48.2,29.79,North,-999,0.0,0.0,84,0.04,,,-99.99,FreeWX-Wi 1.01,2014-03-03 13:40:00,
2014-03-03 05:45:00,52.9,48.2,29.79,North,-999,0.0,0.0,84,0.04,,,-99.99,FreeWX-Wi 1.01,2014-03-03 13:45:00,
2014-03-03 05:50:00,52.9,48.2,29.79,North,-999,0.0,0.0,84,0.04,,,-99.99,FreeWX-Wi 1.01,2014-03-03 13:50:00,
2014-03-03 05:55:00,52.9,48.2,29.79,North,-999,0.0,0.0,84,0.04,,,-99.99,FreeWX-Wi 1.01,2014-03-03 13:55:00,
2014-03-03 06:00:00,52.9,48.2,29.79,North,-999,0.0,0.0,84,0.04,,,-99.99,FreeWX-Wi 1.01,2014-03-03 14:00:00,
2014-03-03 06:05:00,52.9,48.2,29.79,North,-999,0.0,0.0,84,0.04,,,-99.99,FreeWX-Wi 1.01,2014-03-03 14:05:00,
2014-03-03 06:10:00,52.9,48.2,29.79,North,-999,0.0,0.0,84,0.04,,,-99.99,FreeWX-Wi 1.01,2014-03-03 14:10:00,
2014-03-03 06:15:00,53.1,48.7,29.79,North,-999,0.0,2.7,85,0.04,,,-99.99,FreeWX-Wi 1.01,2014-03-03 14:15:00,
2014-03-03 06:20:00,53.1,48.4,29.79,North,-999,0.0,0.0,84,0.04,,,-99.99,FreeWX-Wi 1.01,2014-03-03 14:20:00,
2014-03-03 06:25:00,53.1,48.4,29.79,North,-999,0.0,2.7,84,0.04,,,-99.99,FreeWX-Wi 1.01,2014-03-03 14:25:00,
2014-03-03 06:30:00,53.1,48.4,29.79,North,-999,0.0,3.1,84,0.00,,,-99.99,FreeWX-Wi 1.01,2014-03-03 14:30:00,
2014-03-03 06:35:00,53.1,48.4,29.79,North,-999,0.0,3.1,84,0.00,,,-99.99,FreeWX-Wi 1.01,2014-03-03 14:35:00,
2014-03-03 06:40:00,53.1,48.4,29.79,North,-999,0.0,3.1,84,0.00,,,-99.99,FreeWX-Wi 1.01,2014-03-03 14:40:00,
2014-03-03 06:45:00,53.1,48.4,29.79,North,-999,0.0,3.1,84,0.00,,,-99.99,FreeWX-Wi 1.01,2014-03-03 14:45:00,
2014-03-03 06:50:00,53.1,48.4,29.79,North,-999,0.0,2.7,84,0.00,,,-99.99,FreeWX-Wi 1.01,2014-03-03 14:50:00,
2014-03-03 06:55:00,53.1,48.4,29.79,North,-999,0.0,2.7,84,0.00,,,-99.99,FreeWX-Wi 1.01,2014-03-03 14:55:00,
2014-03-03 07:00:00,53.1,48.4,29.79,North,-999,0.0,2.2,84,0.00,,,-99.99,FreeWX-Wi 1.01,2014-03-03 15:00:00,
2014-03-03 07:05:00,53.1,48.0,29.79,North,-999,0.0,0.0,83,0.00,,,-99.99,FreeWX-Wi 1.01,2014-03-03 15:05:00,
2014-03-03 07:10:00,53.1,48.0,29.79,North,-999,0.0,2.2,83,0.00,,,-99.99,FreeWX-Wi 1.01,2014-03-03 15:10:00,
2014-03-03 07:15:00,53.1,48.0,29.79,North,-999,0.0,2.2,83,0.00,,,-99.99,FreeWX-Wi 1.01,2014-03-03 15:15:00,
2014-03-03 07:20:00,53.1,48.0,29.79,North,-999,0.0,0.0,83,0.08,,,-99.99,FreeWX-Wi 1.01,2014-03-03 15:20:00,
2014-03-03 07:25:00,53.1,48.4,29.79,North,-999,0.0,2.2,84,0.08,,,-99.99,FreeWX-Wi 1.01,2014-03-03 15:25:00,
2014-03-03 07:30:00,53.2,48.6,29.79,North,-999,0.0,0.0,84,0.08,,,-99.99,FreeWX-Wi 1.01,2014-03-03 15:30:00,
2014-03-03 07:35:00,53.2,48.6,29.79,North,-999,0.0,2.7,84,0.08,,,-99.99,FreeWX-Wi 1.01,2014-03-03 15:35:00,
2014-03-03 07:40:00,53.2,48.6,29.79,North,-999,0.0,2.7,84,0.08,,,-99.99,FreeWX-Wi 1.01,2014-03-03 15:40:00,
2014-03-03 07:45:00,53.4,48.7,29.79,North,-999,0.0,2.2,84,0.08,,,-99.99,FreeWX-Wi 1.01,2014-03-03 15:45:00,
2014-03-03 07:50:00,53.4,48.7,29.79,North,-999,0.0,3.1,84,0.08,,,-99.99,FreeWX-Wi 1.01,2014-03-03 15:50:00,
2014-03-03 07:55:00,53.4,48.7,29.79,North,-999,0.0,2.7,84,0.08,,,-99.99,FreeWX-Wi 1.01,2014-03-03 15:55:00,
2014-03-03 08:00:00,53.6,48.9,29.79,North,-999,0.0,2.2,84,0.08,,,-99.99,FreeWX-Wi 1.01,2014-03-03 16:00:00,
2014-03-03 08:05:00,53.6,48.9,29.79,North,-999,0.0,0.0,84,0.08,,,-99.99,FreeWX-Wi 1.01,2014-03-03 16:05:00,
2014-03-03 08:10:00,53.6,48.9,29.79,North,-999,0.0,2.2,84,0.12,,,-99.99,FreeWX-Wi 1.01,2014-03-03 16:10:00,
2014-03-03 08:15:00,53.8,49.5,29.79,North,-999,0.0,2.7,85,0.04,,,-99.99,FreeWX-Wi 1.01,2014-03-03 16:15:00,
2014-03-03 08:20:00,53.8,49.5,29.79,North,-999,0.0,2.2,85,0.04,,,-99.99,FreeWX-Wi 1.01,2014-03-03 16:20:00,
2014-03-03 08:25:00,53.8,49.5,29.79,North,-999,0.0,0.0,85,0.04,,,-99.99,FreeWX-Wi 1.01,2014-03-03 16:25:00,
2014-03-03 08:30:00,53.8,49.5,29.79,North,-999,0.0,0.0,85,0.04,,,-99.99,FreeWX-Wi 1.01,2014-03-03 16:30:00,
2014-03-03 08:35:00,54.0,49.6,29.82,North,-999,0.0,2.7,85,0.04,,,-99.99,FreeWX-Wi 1.01,2014-03-03 16:35:00,
2014-03-03 08:40:00,54.1,49.6,29.82,North,-999,0.0,0.0,85,0.04,,,-99.99,FreeWX-Wi 1.01,2014-03-03 16:40:00,
2014-03-03 08:45:00,54.3,50.2,29.82,North,-999,0.0,0.0,86,0.04,,,-99.99,FreeWX-Wi 1.01,2014-03-03 16:45:00,
2014-03-03 08:50:00,54.5,50.4,29.82,North,-999,0.0,0.0,86,0.04,,,-99.99,FreeWX-Wi 1.01,2014-03-03 16:50:00,
2014-03-03 08:55:00,54.3,50.2,29.82,North,-999,0.0,2.7,86,0.04,,,-99.99,FreeWX-Wi 1.01,2014-03-03 16:55:00,
2014-03-03 09:00:00,54.3,50.2,29.82,North,-999,0.0,2.7,86,0.04,,,-99.99,FreeWX-Wi 1.01,2014-03-03 17:00:00,
2014-03-03 09:05:00,54.5,50.4,29.82,North,-999,0.0,0.0,86,0.04,,,-99.99,FreeWX-Wi 1.01,2014-03-03 17:05:00,
2014-03-03 09:10:00,54.7,50.9,29.82,North,-999,0.0,0.0,87,0.00,,,-99.99,FreeWX-Wi 1.01,2014-03-03 17:10:00,
2014-03-03 09:15:00,54.7,50.9,29.82,North,-999,0.0,0.0,87,0.00,,,-99.99,FreeWX-Wi 1.01,2014-03-03 17:15:00,
2014-03-03 09:20:00,54.9,51.1,29.82,North,-999,0.0,0.0,87,0.00,,,-99.99,FreeWX-Wi 1.01,2014-03-03 17:20:00,
2014-03-03 09:25:00,54.9,51.1,29.82,North,-999,0.0,0.0,87,0.00,,,-99.99,FreeWX-Wi 1.01,2014-03-03 17:25:00,
2014-03-03 09:30:00,54.7,50.9,29.82,North,-999,0.0,0.0,87,0.00,,,-99.99,FreeWX-Wi 1.01,2014-03-03 17:30:00,
2014-03-03 09:35:00,54.5,50.7,29.82,North,-999,0.0,0.0,87,0.00,,,-99.99,FreeWX-Wi 1.01,2014-03-03 17:35:00,
2014-03-03 09:40:00,54.5,50.7,29.82,North,-999,0.0,0.0,87,0.00,,,-99.99,FreeWX-Wi 1.01,2014-03-03 17:40:00,
2014-03-03 09:45:00,54.5,50.7,29.82,North,-999,0.0,0.0,87,0.04,,,-99.99,FreeWX-Wi 1.01,2014-03-03 17:45:00,
2014-03-03 09:50:00,54.5,50.7,29.85,North,-999,0.0,2.2,87,0.04,,,-99.99,FreeWX-Wi 1.01,2014-03-03 17:50:00,
2014-03-03 09:55:00,54.5,50.7,29.85,North,-999,0.0,2.7,87,0.08,,,-99.99,FreeWX-Wi 1.01,2014-03-03 17:55:00,
2014-03-03 10:00:00,54.5,50.7,29.85,North,-999,0.0,0.0,87,0.08,,,-99.99,FreeWX-Wi 1.01,2014-03-03 18:00:00,
2014-03-03 10:05:00,54.5,50.7,29.85,North,-999,0.0,0.0,87,0.12,,,-99.99,FreeWX-Wi 1.01,2014-03-03 18:05:00,
2014-03-03 10:10:00,54.5,50.7,29.85,North,-999,0.0,0.0,87,0.12,,,-99.99,FreeWX-Wi 1.01,2014-03-03 18:10:00,
2014-03-03 10:15:00,54.7,50.9,29.85,North,-999,0.0,0.0,87,0.12,,,-99.99,FreeWX-Wi 1.01,2014-03-03 18:15:00,
2014-03-03 10:20:00,54.9,51.4,29.85,North,-999,0.0,0.0,88,0.12,,,-99.99,FreeWX-Wi 1.01,2014-03-03 18:20:00,
2014-03-03 10:25:00,55.2,51.8,29.85,North,-999,0.0,0.0,88,0.12,,,-99.99,FreeWX-Wi 1.01,2014-03-03 18:25:00,
2014-03-03 10:30:00,55.2,51.8,29.85,North,-999,0.0,0.0,88,0.12,,,-99.99,FreeWX-Wi 1.01,2014-03-03 18:30:00,
2014-03-03 10:35:00,55.2,51.8,29.82,North,-999,0.0,0.0,88,0.12,,,-99.99,FreeWX-Wi 1.01,2014-03-03 18:35:00,
2014-03-03 10:40:00,55.6,51.8,29.82,North,-999,0.0,0.0,87,0.12,,,-99.99,FreeWX-Wi 1.01,2014-03-03 18:40:00,
2014-03-03 10:45:00,55.8,52.3,29.82,North,-999,0.0,0.0,88,0.08,,,-99.99,FreeWX-Wi 1.01,2014-03-03 18:45:00,
2014-03-03 10:50:00,56.1,52.7,29.85,North,-999,0.0,3.1,88,0.08,,,-99.99,FreeWX-Wi 1.01,2014-03-03 18:50:00,
2014-03-03 10:55:00,56.5,52.9,29.85,North,-999,0.0,3.1,88,0.04,,,-99.99,FreeWX-Wi 1.01,2014-03-03 18:55:00,
2014-03-03 11:00:00,56.8,53.2,29.85,North,-999,0.0,0.0,88,0.04,,,-99.99,FreeWX-Wi 1.01,2014-03-03 19:00:00,
2014-03-03 11:05:00,56.7,53.1,29.85,North,-999,0.0,3.1,88,0.00,,,-99.99,FreeWX-Wi 1.01,2014-03-03 19:05:00,
2014-03-03 11:10:00,56.5,52.9,29.85,North,-999,0.0,3.1,88,0.00,,,-99.99,FreeWX-Wi 1.01,2014-03-03 19:10:00,
2014-03-03 11:15:00,56.7,53.1,29.85,North,-999,0.0,0.0,88,0.00,,,-99.99,FreeWX-Wi 1.01,2014-03-03 19:15:00,
2014-03-03 11:20:00,56.5,52.9,29.85,North,-999,0.0,2.7,88,0.00,,,-99.99,FreeWX-Wi 1.01,2014-03-03 19:20:00,
2014-03-03 11:25:00,56.7,53.1,29.85,North,-999,0.0,0.0,88,0.00,,,-99.99,FreeWX-Wi 1.01,2014-03-03 19:25:00,
2014-03-03 11:30:00,56.7,53.1,29.85,North,-999,0.0,0.0,88,0.00,,,-99.99,FreeWX-Wi 1.01,2014-03-03 19:30:00,
2014-03-03 11:36:00,56.8,53.2,29.85,North,-999,0.0,0.0,88,0.00,,,-99.99,FreeWX-Wi 1.01,2014-03-03 19:36:00,
2014-03-03 11:41:00,57.0,53.4,29.85,North,-999,0.0,0.0,88,0.00,,,-99.99,FreeWX-Wi 1.01,2014-03-03 19:41:00,
2014-03-03 11:46:00,57.2,53.6,29.85,North,-999,0.0,0.0,88,0.00,,,-99.99,FreeWX-Wi 1.01,2014-03-03 19:46:00,
2014-03-03 11:51:00,57.4,53.8,29.85,North,-999,0.0,0.0,88,0.00,,,-99.99,FreeWX-Wi 1.01,2014-03-03 19:51:00,
2014-03-03 11:56:00,57.6,54.0,29.85,North,-999,0.0,2.7,88,0.00,,,-99.99,FreeWX-Wi 1.01,2014-03-03 19:56:00,
2014-03-03 12:01:00,57.6,54.0,29.85,North,-999,0.0,0.0,88,0.00,,,-99.99,FreeWX-Wi 1.01,2014-03-03 20:01:00,
2014-03-03 12:06:00,57.6,54.0,29.85,North,-999,0.0,0.0,88,0.00,,,-99.99,FreeWX-Wi 1.01,2014-03-03 20:06:00,
2014-03-03 12:11:00,57.6,54.0,29.85,North,-999,0.0,0.0,88,0.00,,,-99.99,FreeWX-Wi 1.01,2014-03-03 20:11:00,
2014-03-03 12:16:00,57.6,54.0,29.85,North,-999,0.0,2.7,88,0.08,,,-99.99,FreeWX-Wi 1.01,2014-03-03 20:16:00,
2014-03-03 12:21:00,57.6,54.0,29.85,North,-999,0.0,0.0,88,0.08,,,-99.99,FreeWX-Wi 1.01,2014-03-03 20:21:00,
2014-03-03 12:26:00,57.7,54.1,29.85,North,-999,0.0,2.7,88,0.08,,,-99.99,FreeWX-Wi 1.01,2014-03-03 20:26:00,
2014-03-03 12:31:00,58.3,54.7,29.85,North,-999,0.0,0.0,88,0.12,,,-99.99,FreeWX-Wi 1.01,2014-03-03 20:31:00,
2014-03-03 12:36:00,58.5,54.9,29.85,North,-999,0.0,0.0,88,0.12,,,-99.99,FreeWX-Wi 1.01,2014-03-03 20:36:00,
2014-03-03 12:41:00,58.6,55.0,29.85,North,-999,0.0,0.0,88,0.12,,,-99.99,FreeWX-Wi 1.01,2014-03-03 20:41:00,
2014-03-03 12:46:00,58.8,55.2,29.85,North,-999,0.0,0.0,88,0.12,,,-99.99,FreeWX-Wi 1.01,2014-03-03 20:46:00,
2014-03-03 12:51:00,59.4,55.8,29.85,North,-999,0.0,0.0,88,0.12,,,-99.99,FreeWX-Wi 1.01,2014-03-03 20:51:00,
2014-03-03 12:56:00,59.4,55.8,29.85,North,-999,0.0,0.0,88,0.12,,,-99.99,FreeWX-Wi 1.01,2014-03-03 20:56:00,
2014-03-03 13:01:00,59.4,55.8,29.85,North,-999,0.0,0.0,88,0.12,,,-99.99,FreeWX-Wi 1.01,2014-03-03 21:01:00,
2014-03-03 13:06:00,59.2,55.6,29.85,North,-999,0.0,0.0,88,0.12,,,-99.99,FreeWX-Wi 1.01,2014-03-03 21:06:00,
2014-03-03 13:11:00,59.4,55.8,29.85,North,-999,0.0,0.0,88,0.12,,,-99.99,FreeWX-Wi 1.01,2014-03-03 21:11:00,
2014-03-03 13:16:00,59.7,56.1,29.85,North,-999,0.0,0.0,88,0.04,,,-99.99,FreeWX-Wi 1.01,2014-03-03 21:16:00,
2014-03-03 13:21:00,59.7,56.1,29.85,North,-999,0.0,2.2,88,0.04,,,-99.99,FreeWX-Wi 1.01,2014-03-03 21:21:00,
2014-03-03 13:26:00,59.7,56.1,29.85,North,-999,0.0,0.0,88,0.04,,,-99.99,FreeWX-Wi 1.01,2014-03-03 21:26:00,
2014-03-03 13:31:00,59.5,55.9,29.85,North,-999,0.0,0.0,88,0.00,,,-99.99,FreeWX-Wi 1.01,2014-03-03 21:31:00,
2014-03-03 13:36:00,59.5,55.9,29.85,North,-999,0.0,0.0,88,0.00,,,-99.99,FreeWX-Wi 1.01,2014-03-03 21:36:00,
2014-03-03 13:41:00,59.2,55.6,29.85,North,-999,0.0,0.0,88,0.00,,,-99.99,FreeWX-Wi 1.01,2014-03-03 21:41:00,
2014-03-03 13:46:00,59.2,55.6,29.85,North,-999,0.0,4.0,88,0.00,,,-99.99,FreeWX-Wi 1.01,2014-03-03 21:46:00,
2014-03-03 13:51:00,59.0,55.4,29.85,North,-999,0.0,4.0,88,0.00,,,-99.99,FreeWX-Wi 1.01,2014-03-03 21:51:00,
2014-03-03 13:56:00,58.8,55.2,29.85,North,-999,0.0,3.6,88,0.00,,,-99.99,FreeWX-Wi 1.01,2014-03-03 21:56:00,
2014-03-03 14:01:00,58.6,55.0,29.85,North,-999,0.0,4.0,88,0.00,,,-99.99,FreeWX-Wi 1.01,2014-03-03 22:01:00,
2014-03-03 14:06:00,58.8,55.2,29.85,North,-999,0.0,3.6,88,0.00,,,-99.99,FreeWX-Wi 1.01,2014-03-03 22:06:00,
2014-03-03 14:11:00,58.8,55.2,29.85,West,261,1.0,4.0,88,0.00,,,-99.99,FreeWX-Wi 1.01,2014-03-03 22:11:00,
2014-03-03 14:16:00,58.6,55.0,29.85,West,261,1.0,4.0,88,0.00,,,-99.99,FreeWX-Wi 1.01,2014-03-03 22:16:00,
2014-03-03 14:21:00,58.5,54.9,29.85,West,262,1.0,3.1,88,0.00,,,-99.99,FreeWX-Wi 1.01,2014-03-03 22:21:00,
2014-03-03 14:26:00,58.5,54.9,29.85,West,263,1.0,4.0,88,0.00,,,-99.99,FreeWX-Wi 1.01,2014-03-03 22:26:00,
2014-03-03 14:31:00,58.1,54.3,29.85,West,265,1.0,3.6,87,0.00,,,-99.99,FreeWX-Wi 1.01,2014-03-03 22:31:00,
2014-03-03 14:36:00,58.3,54.5,29.85,West,266,1.0,5.4,87,0.00,,,-99.99,FreeWX-Wi 1.01,2014-03-03 22:36:00,
2014-03-03 14:41:00,57.9,54.1,29.85,West,267,1.0,5.4,87,0.00,,,-99.99,FreeWX-Wi 1.01,2014-03-03 22:41:00,
2014-03-03 14:46:00,57.9,53.8,29.85,West,268,2.0,6.3,86,0.00,,,-99.99,FreeWX-Wi 1.01,2014-03-03 22:46:00,
2014-03-03 14:51:00,57.9,53.8,29.88,West,268,2.0,4.0,86,0.00,,,-99.99,FreeWX-Wi 1.01,2014-03-03 22:51:00,
2014-03-03 14:56:00,58.1,53.6,29.88,West,268,2.0,4.0,85,0.00,,,-99.99,FreeWX-Wi 1.01,2014-03-03 22:56:00,
2014-03-03 15:01:00,57.9,53.1,29.88,West,268,2.0,4.0,84,0.00,,,-99.99,FreeWX-Wi 1.01,2014-03-03 23:01:00,
2014-03-03 15:06:00,57.9,52.7,29.88,West,267,2.0,3.6,83,0.00,,,-99.99,FreeWX-Wi 1.01,2014-03-03 23:06:00,
2014-03-03 15:11:00,57.7,52.3,29.88,West,267,2.0,4.9,82,0.00,,,-99.99,FreeWX-Wi 1.01,2014-03-03 23:11:00,
2014-03-03 15:16:00,57.6,51.8,29.88,West,267,2.0,6.3,81,0.00,,,-99.99,FreeWX-Wi 1.01,2014-03-03 23:16:00,
2014-03-03 15:21:00,57.6,51.4,29.88,West,266,1.0,4.9,80,0.00,,,-99.99,FreeWX-Wi 1.01,2014-03-03 23:21:00,
2014-03-03 15:26:00,57.2,50.7,29.88,West,267,2.0,5.4,79,0.00,,,-99.99,FreeWX-Wi 1.01,2014-03-03 23:26:00,
2014-03-03 15:31:00,57.2,50.0,29.88,West,268,1.0,4.0,77,0.00,,,-99.99,FreeWX-Wi 1.01,2014-03-03 23:31:00,
2014-03-03 15:36:00,57.4,49.1,29.88,West,270,2.0,5.4,74,0.00,,,-99.99,FreeWX-Wi 1.01,2014-03-03 23:36:00,
2014-03-03 15:41:00,57.4,48.4,29.88,West,271,1.0,3.6,72,0.00,,,-99.99,FreeWX-Wi 1.01,2014-03-03 23:41:00,
2014-03-03 15:46:00,57.4,48.0,29.88,West,272,1.0,5.4,71,0.00,,,-99.99,FreeWX-Wi 1.01,2014-03-03 23:46:00,
2014-03-03 15:51:00,57.2,47.8,29.88,West,273,2.0,4.0,71,0.00,,,-99.99,FreeWX-Wi 1.01,2014-03-03 23:51:00,
2014-03-03 15:56:00,56.8,47.1,29.88,West,272,1.0,3.6,70,0.00,,,-99.99,FreeWX-Wi 1.01,2014-03-03 23:56:00,
2014-03-03 16:01:00,57.0,46.2,29.88,West,272,1.0,4.0,67,0.00,,,-99.99,FreeWX-Wi 1.01,2014-03-04 00:01:00,
2014-03-03 16:06:00,57.2,46.4,29.88,West,272,1.0,4.0,67,0.00,,,-99.99,FreeWX-Wi 1.01,2014-03-04 00:06:00,
2014-03-03 16:11:00,56.7,46.2,29.88,West,272,1.0,4.5,68,0.00,,,-99.99,FreeWX-Wi 1.01,2014-03-04 00:11:00,
2014-03-03 16:16:00,56.7,45.0,29.88,West,272,1.0,3.6,65,0.00,,,-99.99,FreeWX-Wi 1.01,2014-03-04 00:16:00,
2014-03-03 16:21:00,56.7,43.7,29.91,West,272,1.0,2.7,62,0.00,,,-99.99,FreeWX-Wi 1.01,2014-03-04 00:21:00,
2014-03-03 16:26:00,56.7,44.6,29.91,West,272,1.0,3.6,64,0.00,,,-99.99,FreeWX-Wi 1.01,2014-03-04 00:26:00,
2014-03-03 16:31:00,56.3,44.2,29.91,North,-999,0.0,3.1,64,0.00,,,-99.99,FreeWX-Wi 1.01,2014-03-04 00:31:00,
2014-03-03 16:36:00,56.5,44.8,29.91,North,-999,0.0,4.0,65,0.00,,,-99.99,FreeWX-Wi 1.01,2014-03-04 00:36:00,
2014-03-03 16:41:00,56.5,45.3,29.91,North,-999,0.0,0.0,66,0.00,,,-99.99,FreeWX-Wi 1.01,2014-03-04 00:41:00,
2014-03-03 16:46:00,56.1,44.6,29.91,North,-999,0.0,4.0,65,0.00,,,-99.99,FreeWX-Wi 1.01,2014-03-04 00:46:00,
2014-03-03 16:51:00,56.1,43.7,29.91,North,-999,0.0,4.0,63,0.00,,,-99.99,FreeWX-Wi 1.01,2014-03-04 00:51:00,
2014-03-03 16:56:00,55.9,43.5,29.91,North,-999,0.0,3.6,63,0.00,,,-99.99,FreeWX-Wi 1.01,2014-03-04 00:56:00,
2014-03-03 17:01:00,55.8,43.3,29.91,North,-999,0.0,2.7,63,0.00,,,-99.99,FreeWX-Wi 1.01,2014-03-04 01:01:00,
2014-03-03 17:06:00,55.9,43.9,29.91,North,-999,0.0,4.0,64,0.00,,,-99.99,FreeWX-Wi 1.01,2014-03-04 01:06:00,
2014-03-03 17:11:00,55.6,43.5,29.91,North,-999,0.0,0.0,64,0.00,,,-99.99,FreeWX-Wi 1.01,2014-03-04 01:11:00,
2014-03-03 17:16:00,55.4,42.6,29.91,North,-999,0.0,3.6,62,0.00,,,-99.99,FreeWX-Wi 1.01,2014-03-04 01:16:00,
2014-03-03 17:21:00,55.4,42.3,29.94,North,-999,0.0,0.0,61,0.00,,,-99.99,FreeWX-Wi 1.01,2014-03-04 01:21:00,
2014-03-03 17:26:00,55.2,41.2,29.94,North,-999,0.0,0.0,59,0.00,,,-99.99,FreeWX-Wi 1.01,2014-03-04 01:26:00,
2014-03-03 17:31:00,55.2,41.5,29.94,North,-999,0.0,0.0,60,0.00,,,-99.99,FreeWX-Wi 1.01,2014-03-04 01:31:00,
2014-03-03 17:36:00,55.0,41.9,29.94,North,-999,0.0,0.0,61,0.00,,,-99.99,FreeWX-Wi 1.01,2014-03-04 01:36:00,
2014-03-03 17:41:00,54.9,41.7,29.94,North,-999,0.0,2.2,61,0.00,,,-99.99,FreeWX-Wi 1.01,2014-03-04 01:41:00,
2014-03-03 17:46:00,54.9,42.1,29.94,North,-999,0.0,0.0,62,0.00,,,-99.99,FreeWX-Wi 1.01,2014-03-04 01:46:00,
2014-03-03 17:51:00,54.7,41.9,29.94,North,-999,0.0,0.0,62,0.00,,,-99.99,FreeWX-Wi 1.01,2014-03-04 01:51:00,
2014-03-03 17:56:00,54.7,41.9,29.94,North,-999,0.0,0.0,62,0.00,,,-99.99,FreeWX-Wi 1.01,2014-03-04 01:56:00,
2014-03-03 18:01:00,54.5,41.7,29.94,North,-999,0.0,0.0,62,0.00,,,-99.99,FreeWX-Wi 1.01,2014-03-04 02:01:00,
2014-03-03 18:06:00,54.5,42.1,29.94,North,-999,0.0,0.0,63,0.00,,,-99.99,FreeWX-Wi 1.01,2014-03-04 02:06:00,
2014-03-03 18:11:00,54.3,42.4,29.94,North,-999,0.0,0.0,64,0.00,,,-99.99,FreeWX-Wi 1.01,2014-03-04 02:11:00,
2014-03-03 18:16:00,54.3,42.4,29.94,North,-999,0.0,0.0,64,0.00,,,-99.99,FreeWX-Wi 1.01,2014-03-04 02:16:00,
2014-03-03 18:21:00,54.1,42.6,29.94,North,-999,0.0,0.0,65,0.00,,,-99.99,FreeWX-Wi 1.01,2014-03-04 02:21:00,
2014-03-03 18:26:00,54.1,42.6,29.94,North,-999,0.0,0.0,65,0.00,,,-99.99,FreeWX-Wi 1.01,2014-03-04 02:26:00,
2014-03-03 18:31:00,54.1,42.6,29.94,North,-999,0.0,0.0,65,0.00,,,-99.99,FreeWX-Wi 1.01,2014-03-04 02:31:00,
2014-03-03 18:36:00,54.1,43.0,29.97,North,-999,0.0,0.0,66,0.00,,,-99.99,FreeWX-Wi 1.01,2014-03-04 02:36:00,
2014-03-03 18:41:00,54.1,43.0,29.97,North,-999,0.0,0.0,66,0.00,,,-99.99,FreeWX-Wi 1.01,2014-03-04 02:41:00,
2014-03-03 18:46:00,54.1,43.0,29.97,North,-999,0.0,0.0,66,0.00,,,-99.99,FreeWX-Wi 1.01,2014-03-04 02:46:00,
2014-03-03 18:51:00,54.1,43.0,29.97,North,-999,0.0,0.0,66,0.00,,,-99.99,FreeWX-Wi 1.01,2014-03-04 02:51:00,
2014-03-03 18:56:00,54.0,42.8,29.97,North,-999,0.0,0.0,66,0.00,,,-99.99,FreeWX-Wi 1.01,2014-03-04 02:56:00,
2014-03-03 19:01:00,54.0,43.3,29.97,North,-999,0.0,0.0,67,0.00,,,-99.99,FreeWX-Wi 1.01,2014-03-04 03:01:00,
2014-03-03 19:06:00,53.8,43.2,29.97,North,-999,0.0,0.0,67,0.00,,,-99.99,FreeWX-Wi 1.01,2014-03-04 03:06:00,
2014-03-03 19:11:00,53.8,43.2,29.97,North,-999,0.0,0.0,67,0.00,,,-99.99,FreeWX-Wi 1.01,2014-03-04 03:11:00,
2014-03-03 19:16:00,53.8,43.5,29.97,North,-999,0.0,0.0,68,0.00,,,-99.99,FreeWX-Wi 1.01,2014-03-04 03:16:00,
2014-03-03 19:21:00,53.8,43.5,29.97,North,-999,0.0,0.0,68,0.00,,,-99.99,FreeWX-Wi 1.01,2014-03-04 03:21:00,
2014-03-03 19:26:00,53.8,43.5,29.97,North,-999,0.0,0.0,68,0.00,,,-99.99,FreeWX-Wi 1.01,2014-03-04 03:26:00,
2014-03-03 19:31:00,53.6,43.3,29.97,North,-999,0.0,0.0,68,0.00,,,-99.99,FreeWX-Wi 1.01,2014-03-04 03:31:00,
2014-03-03 19:36:00,53.4,43.2,29.97,North,-999,0.0,0.0,68,0.00,,,-99.99,FreeWX-Wi 1.01,2014-03-04 03:36:00,
2014-03-03 19:41:00,53.1,42.8,29.97,North,-999,0.0,0.0,68,0.00,,,-99.99,FreeWX-Wi 1.01,2014-03-04 03:41:00,
2014-03-03 19:46:00,53.1,42.8,29.97,North,-999,0.0,0.0,68,0.00,,,-99.99,FreeWX-Wi 1.01,2014-03-04 03:46:00,
2014-03-03 19:51:00,52.9,42.6,29.97,North,-999,0.0,0.0,68,0.00,,,-99.99,FreeWX-Wi 1.01,2014-03-04 03:51:00,
2014-03-03 19:56:00,52.7,42.4,29.97,North,-999,0.0,0.0,68,0.00,,,-99.99,FreeWX-Wi 1.01,2014-03-04 03:56:00,
2014-03-03 20:01:00,52.7,42.8,29.97,North,-999,0.0,0.0,69,0.00,,,-99.99,FreeWX-Wi 1.01,2014-03-04 04:01:00,
2014-03-03 20:06:00,52.7,42.8,29.97,North,-999,0.0,0.0,69,0.00,,,-99.99,FreeWX-Wi 1.01,2014-03-04 04:06:00,
2014-03-03 20:11:00,52.5,42.6,29.97,North,-999,0.0,0.0,69,0.00,,,-99.99,FreeWX-Wi 1.01,2014-03-04 04:11:00,
2014-03-03 20:16:00,52.3,42.4,29.97,North,-999,0.0,0.0,69,0.00,,,-99.99,FreeWX-Wi 1.01,2014-03-04 04:16:00,
2014-03-03 20:21:00,52.3,42.4,29.97,North,-999,0.0,0.0,69,0.00,,,-99.99,FreeWX-Wi 1.01,2014-03-04 04:21:00,
2014-03-03 20:26:00,52.2,42.3,29.97,North,-999,0.0,0.0,69,0.00,,,-99.99,FreeWX-Wi 1.01,2014-03-04 04:26:00,
2014-03-03 20:31:00,52.2,42.3,29.97,North,-999,0.0,0.0,69,0.00,,,-99.99,FreeWX-Wi 1.01,2014-03-04 04:31:00,
2014-03-03 20:36:00,52.0,42.1,30.00,North,-999,0.0,0.0,69,0.00,,,-99.99,FreeWX-Wi 1.01,2014-03-04 04:36:00,
2014-03-03 20:41:00,52.0,42.1,30.00,North,-999,0.0,0.0,69,0.00,,,-99.99,FreeWX-Wi 1.01,2014-03-04 04:41:00,
2014-03-03 20:46:00,51.8,41.9,30.00,North,-999,0.0,0.0,69,0.00,,,-99.99,FreeWX-Wi 1.01,2014-03-04 04:46:00,
2014-03-03 20:51:00,51.6,42.1,30.00,North,-999,0.0,0.0,70,0.00,,,-99.99,FreeWX-Wi 1.01,2014-03-04 04:51:00,
2014-03-03 20:56:00,51.6,42.1,30.00,North,-999,0.0,0.0,70,0.00,,,-99.99,FreeWX-Wi 1.01,2014-03-04 04:56:00,
2014-03-03 21:01:00,51.6,42.1,30.00,North,-999,0.0,0.0,70,0.00,,,-99.99,FreeWX-Wi 1.01,2014-03-04 05:01:00,
2014-03-03 21:06:00,51.6,42.1,30.00,North,-999,0.0,0.0,70,0.00,,,-99.99,FreeWX-Wi 1.01,2014-03-04 05:06:00,
2014-03-03 21:11:00,51.4,41.9,30.00,North,-999,0.0,0.0,70,0.00,,,-99.99,FreeWX-Wi 1.01,2014-03-04 05:11:00,
2014-03-03 21:16:00,51.4,41.9,30.00,North,-999,0.0,0.0,70,0.00,,,-99.99,FreeWX-Wi 1.01,2014-03-04 05:16:00,
2014-03-03 21:21:00,51.3,41.9,30.00,North,-999,0.0,0.0,70,0.00,,,-99.99,FreeWX-Wi 1.01,2014-03-04 05:21:00,
2014-03-03 21:26:00,51.3,41.9,30.00,North,-999,0.0,0.0,70,0.00,,,-99.99,FreeWX-Wi 1.01,2014-03-04 05:26:00,
2014-03-03 21:31:00,51.1,41.7,30.00,North,-999,0.0,0.0,70,0.00,,,-99.99,FreeWX-Wi 1.01,2014-03-04 05:31:00,
2014-03-03 21:36:00,50.9,41.5,30.00,North,-999,0.0,0.0,70,0.00,,,-99.99,FreeWX-Wi 1.01,2014-03-04 05:36:00,
2014-03-03 21:41:00,50.5,41.2,30.00,North,-999,0.0,0.0,70,0.00,,,-99.99,FreeWX-Wi 1.01,2014-03-04 05:41:00,
2014-03-03 21:46:00,50.5,41.2,30.00,North,-999,0.0,0.0,70,0.00,,,-99.99,FreeWX-Wi 1.01,2014-03-04 05:46:00,
2014-03-03 21:51:00,50.5,41.2,30.00,North,-999,0.0,0.0,70,0.00,,,-99.99,FreeWX-Wi 1.01,2014-03-04 05:51:00,
2014-03-03 21:56:00,50.4,41.0,30.00,North,-999,0.0,0.0,70,0.00,,,-99.99,FreeWX-Wi 1.01,2014-03-04 05:56:00,
2014-03-03 22:01:00,50.4,41.0,30.00,North,-999,0.0,0.0,70,0.00,,,-99.99,FreeWX-Wi 1.01,2014-03-04 06:01:00,
2014-03-03 22:06:00,50.4,41.4,30.00,North,-999,0.0,0.0,71,0.00,,,-99.99,FreeWX-Wi 1.01,2014-03-04 06:06:00,
2014-03-03 22:11:00,50.2,41.2,30.00,North,-999,0.0,0.0,71,0.00,,,-99.99,FreeWX-Wi 1.01,2014-03-04 06:11:00,
2014-03-03 22:16:00,50.2,41.2,30.00,North,-999,0.0,0.0,71,0.00,,,-99.99,FreeWX-Wi 1.01,2014-03-04 06:16:00,
2014-03-03 22:21:00,50.2,41.2,30.00,North,-999,0.0,0.0,71,0.00,,,-99.99,FreeWX-Wi 1.01,2014-03-04 06:21:00,
2014-03-03 22:26:00,50.2,41.2,30.00,North,-999,0.0,0.0,71,0.00,,,-99.99,FreeWX-Wi 1.01,2014-03-04 06:26:00,
2014-03-03 22:31:00,50.2,41.2,30.00,North,-999,0.0,0.0,71,0.00,,,-99.99,FreeWX-Wi 1.01,2014-03-04 06:31:00,
2014-03-03 22:36:00,50.2,41.2,30.00,North,-999,0.0,0.0,71,0.00,,,-99.99,FreeWX-Wi 1.01,2014-03-04 06:36:00,
2014-03-03 22:41:00,50.2,41.2,30.00,North,-999,0.0,0.0,71,0.00,,,-99.99,FreeWX-Wi 1.01,2014-03-04 06:41:00,
2014-03-03 22:46:00,50.2,41.2,30.00,North,-999,0.0,0.0,71,0.00,,,-99.99,FreeWX-Wi 1.01,2014-03-04 06:46:00,
2014-03-03 22:51:00,50.0,41.0,30.00,North,-999,0.0,0.0,71,0.00,,,-99.99,FreeWX-Wi 1.01,2014-03-04 06:51:00,
2014-03-03 22:56:00,50.0,41.4,30.00,North,-999,0.0,0.0,72,0.00,,,-99.99,FreeWX-Wi 1.01,2014-03-04 06:56:00,
2014-03-03 23:01:00,50.0,41.4,30.00,North,-999,0.0,0.0,72,0.00,,,-99.99,FreeWX-Wi 1.01,2014-03-04 07:01:00,
2014-03-03 23:06:00,50.0,41.4,30.00,North,-999,0.0,0.0,72,0.00,,,-99.99,FreeWX-Wi 1.01,2014-03-04 07:06:00,
2014-03-03 23:11:00,50.0,41.4,30.00,North,-999,0.0,0.0,72,0.00,,,-99.99,FreeWX-Wi 1.01,2014-03-04 07:11:00,
2014-03-03 23:16:00,50.0,41.4,30.00,North,-999,0.0,0.0,72,0.00,,,-99.99,FreeWX-Wi 1.01,2014-03-04 07:16:00,
2014-03-03 23:21:00,50.0,41.4,30.00,North,-999,0.0,0.0,72,0.00,,,-99.99,FreeWX-Wi 1.01,2014-03-04 07:21:00,
2014-03-03 23:26:00,50.0,41.4,30.00,North,-999,0.0,0.0,72,0.00,,,-99.99,FreeWX-Wi 1.01,2014-03-04 07:26:00,
2014-03-03 23:31:00,50.0,41.7,30.00,North,-999,0.0,0.0,73,0.00,,,-99.99,FreeWX-Wi 1.01,2014-03-04 07:31:00,
2014-03-03 23:36:00,50.0,41.7,30.00,North,-999,0.0,0.0,73,0.00,,,-99.99,FreeWX-Wi 1.01,2014-03-04 07:36:00,
2014-03-03 23:41:00,49.6,41.4,30.00,North,-999,0.0,0.0,73,0.00,,,-99.99,FreeWX-Wi 1.01,2014-03-04 07:41:00,
2014-03-03 23:46:00,49.3,40.6,30.00,North,-999,0.0,0.0,72,0.00,,,-99.99,FreeWX-Wi 1.01,2014-03-04 07:46:00,
2014-03-03 23:51:00,49.3,41.0,30.00,North,-999,0.0,0.0,73,0.00,,,-99.99,FreeWX-Wi 1.01,2014-03-04 07:51:00,
2014-03-03 23:56:00,49.5,41.2,30.00,North,-999,0.0,0.0,73,0.00,,,-99.99,FreeWX-Wi 1.01,2014-03-04 07:56:00,